User: anonymous   Login
Location: Warszawa
(52.2500°N, 21.0000°E)
Time: 00:53:25
(UTC+02:00)
Language:

SPROUT - Orbit

View from above orbital plane
View from above orbital plane
View from above satellite
View from above satellite

Ground track
Ground track

The orbit data is extracted from the following two-line orbital elements,

1 39770U 14029E   24115.39535052  .00151058  00000-0  47176-2 0  9994
2 39770  98.0097 262.9480 0005516 295.4049  64.6620 15.32544962539374
Epoch (UTC): 24 April 2024 09:29:18
Eccentricity: 0.0005516
inclination: 98.0097°
perigee height: 464 km
apogee height: 472 km
right ascension of ascending node: 262.9480°
argument of perigee: 295.4049°
revolutions per day: 15.32544962
mean anomaly at epoch: 64.6620°
orbit number at epoch: 53937

The dashed part of the orbit path shows where the satellite is in the earth's shadow,  

DLR